Voltar ao catálogo

STARLINK-3138

AtivoComunicaçõesVLEO
NORAD 49430·PAYLOAD·🇺🇸 United States

Lançado Nov 13, 2021 de Cape Canaveral Space Force Station

Loading…

Próximas Passagens (próximas 24 horas)

TLE

AtualizadoSource: CelesTrak SupGP

Época: Sep 15, 2026, 01:11 UTC

1 49430C 21104Y   26258.04979167  .00020040  00000+0  59208-3 0  2584
2 49430  53.1573  86.8437 0001063  72.4549 116.0406 15.34380574    12

Acompanhe STARLINK-3138 em tempo real com AllMySat

Download on the App Store